Showing default

HAWK-2C, 47502

Orbit data source: Space-Track

HAWK-2C, 47502 is a payload satellite owned by HawkEye 360 (US) in SSO that was launched on Sun, 24 Jan 2021 UTC via an FALCON 9 launch vehicle from the Air Force Eastern Test Range (AFETR). Payload-class satellites include a variety of spacecraft equipped with specific instruments for various scientific and technological missions. These include communications satellites like Starlink; space stations such as the ISS; scientific satellites like the Hubble; Earth observation satellites from companies like Planet Labs, Umbra, and HawkEye 360; GPS; miniature CubeSats for education and research; and military/defense satellites.

Loading next visibility...
Identifier
47502, 2021-006CT
Orbit
SSO
Country
Flag of USUS
Related business
Manufacturer
UTIAS-SFL
Mission
Operational Commercial Sigint
Bus & Motor
DEFIANT, Unknown motor
Mass
31 kg wet, 30 kg dry
Launch date (UTC)
2021-01-24 (5 years ago)
Launch vehicle
FALCON 9
Launch site
Air Force Eastern Test Range (AFETR)
Object type
Payload
Rocket body
Debris
Shape & HBR
Box + 2 Pan, 1.0 m
Radar Cross Section
0.348 m², Medium (>0.1 m² and < 1m²)

Expand to show TLE details & history
Last TLE update: 14 hours ago

TLE from 14 hours ago
0 HAWK-2C
1 47502U 21006CT  25287.87899602  .00008578  00000-0  29479-3 0  9992
2 47502  97.2665 332.2395 0007520  14.0865 346.0585 15.30317215261929
Epoch: 2025-10-14T21:05Z
TLE epoch observation values (Epoch: 2025-10-14T21:05:45.256Z)
Latitude
0.00005°
Longitude
-7.86017°
Altitude
472.971 km
Speed
7.632 km/s
True Right ascension
22h 08m 57s
True Declination
0° 00' 00"
Sunlit
Object was in full shadow at epoch
Visualization orbit readout
Latitude
Unknown
Longitude
Unknown
Altitude
Unknown
Speed
Unknown
Apparent Right ascension
Unknown
Apparent Declination
Unknown
Sunlit
N/A
Visualization observer readout
Local Sidereal Time
05:49:06
Azimuth
Unknown
Elevation
Unknown
Doppler factor
Unknown
Orbital elements
Apogee altitude
476.962 km
Perigee altitude
466.66 km
Semi-major axis
6,849.948 km
Eccentricity
0.00075
Inclination
97.2665°
RAAN
332.2395°
Arg. of periapsis
14.0865°
True anomaly
346.03772°
Mean anomaly
346.0585°
Eccentric anomaly
346.04811°
Mean motion
3.82836 °/min
Orbital period
94.04 mins
BSTAR
0.00029479
Loading maneuver chart data...
Computing Atmospheric mass density...

Documentation

Showing up to 5 results
|